Regional Weather Roundup
Issued by NWS

Home | Current Version | Previous Version | Graphics & Text | Print | Product List | Glossary On
Versions: 1 2 3 4 5 6 7 8 9 10 11 12 13 14 15 16 17 18 19 20 21 22 23 24 25 26 27 28 29 30 31 32 33 34 35 36 37 38 39 40 41 42 43 44 45 46 47 48 49 50
000
ASUS43 KOAX 280002
RWRNE

WEATHER ROUNDUP FOR NEBRASKA
NATIONAL WEATHER SERVICE OMAHA NE
700 PM CDT FRI MAY 27 2016

NOTES: SATELLITE DATA IS BEING USED TO AUGMENT CLOUD COVER ABOVE
       12000 FEET.
       "FAIR" INDICATES FEW OR NO CLOUDS BELOW 12,000 FEET WITH NO
       SIGNIFICANT WEATHER AND/OR OBSTRUCTIONS TO VISIBILITY.

  * THESE STATIONS DO NOT REPORT WEATHER SUCH AS RAIN...SNOW OR FOG.

NEZ001>004-019>022-054>056-280100-
NEBRASKA PANHANDLE

CITY           SKY/WX    TMP DP  RH WIND       PRES   REMARKS
SCOTTSBLUFF    CLOUDY    60  45  57 W3        29.87F
6HR MIN TEMP:  57; 6HR MAX TEMP:  60; 6HR PCP: TRACE;

ALLIANCE       CLOUDY    60  46  59 N7        29.84S
6HR MIN TEMP:  50; 6HR MAX TEMP:  63; 6HR PCP:  0.03;

CHADRON        CLOUDY    61  46  57 S3        29.84F
6HR MIN TEMP:  57; 6HR MAX TEMP:  62; 6HR PCP:  0.03;

SIDNEY         SUNNY     56  50  80 N8        29.85F
6HR MIN TEMP:  52; 6HR MAX TEMP:  58; 6HR PCP:  0.02;

$$

NEZ057>060-069>072-079>082-280100-
SOUTHWEST NEBRASKA

CITY           SKY/WX    TMP DP  RH WIND       PRES   REMARKS
NORTH PLATTE   LGT RAIN  60  54  80 N7        29.74F
6HR MIN TEMP:  60; 6HR MAX TEMP:  68; 6HR PCP:  0.09;

IMPERIAL       TSTM      52  48  86 N22       29.79F FOG
6HR MIN TEMP:  51; 6HR MAX TEMP:  61; 6HR PCP:  1.11;

LEXINGTON      CLOUDY    65  57  75 E7        29.71S
MCCOOK         CLOUDY    63  56  78 CALM      29.73F
6HR MIN TEMP:  58; 6HR MAX TEMP:  64; 6HR PCP: TRACE;

$$

NEZ005>010-023>029-035>040-094-280100-
NORTH CENTRAL NEBRASKA

CITY           SKY/WX    TMP DP  RH WIND       PRES   REMARKS
VALENTINE      SUNNY     67  47  48 N12       29.77F
6HR MIN TEMP:  62; 6HR MAX TEMP:  70;

AINSWORTH      PTSUNNY   66  52  61 N10       29.76F
BROKEN BOW     SUNNY     69  56  62 NE9       29.71F
6HR MIN TEMP:  60; 6HR MAX TEMP:  70; 6HR PCP:  0.01;

ORD            MOSUNNY   72  57  59 NE14      29.67F
6HR MIN TEMP:  66; 6HR MAX TEMP:  73; 6HR PCP: TRACE;

$$

NEZ041-046>049-061>064-073>077-083>087-280100-
SOUTH CENTRAL NEBRASKA

CITY           SKY/WX    TMP DP  RH WIND       PRES   REMARKS
GRAND ISLAND   LGT RAIN  63  59  87 N8        29.69F
6HR MIN TEMP:  61; 6HR MAX TEMP:  70; 6HR PCP:  0.70;

HASTINGS       CLOUDY    66  61  84 N8        29.67F
6HR MIN TEMP:  63; 6HR MAX TEMP:  69; 6HR PCP:  0.01;

KEARNEY *      CLOUDY    66  57  72 E9        29.71S
YORK           LGT RAIN  64  61  88 N6G16     29.68F
$$

NEZ011>018-030>034-042>045-280100-
NORTHEAST NEBRASKA

CITY           SKY/WX    TMP DP  RH WIND       PRES   REMARKS
NORFOLK        PTSUNNY   72  56  57 E6        29.68F
6HR MIN TEMP:  69; 6HR MAX TEMP:  76;

ALBION         LGT RAIN  69  57  65 N5        29.70S
BLAIR          CLOUDY    75  60  59 E8        29.69S
FREMONT        CLOUDY    75  56  52 E3        29.69S
TEKAMAH        CLOUDY    77  55  46 E8        29.67S
6HR MIN TEMP:  74; 6HR MAX TEMP:  81;

$$

NEZ050>053-065>068-078-088>093-280100-
SOUTHEAST NEBRASKA

CITY           SKY/WX    TMP DP  RH WIND       PRES   REMARKS
LINCOLN        CLOUDY    73  61  65 E16       29.67F
6HR MIN TEMP:  70; 6HR MAX TEMP:  77;

OMAHA EPPLEY   CLOUDY    77  59  53 E6        29.68S
6HR MIN TEMP:  72; 6HR MAX TEMP:  79;

FALLS CITY     CLOUDY    73  67  81 SE5       29.69S
6HR MIN TEMP:  70; 6HR MAX TEMP:  80; 6HR PCP:  0.08;

$$

NEZ044-045-051>053-067-280100-
OMAHA AREA

CITY           SKY/WX    TMP DP  RH WIND       PRES   REMARKS
OMAHA EPPLEY   CLOUDY    77  59  53 E6        29.68S
6HR MIN TEMP:  72; 6HR MAX TEMP:  79;

BLAIR          CLOUDY    75  60  59 E8        29.69S
FREMONT        CLOUDY    75  56  52 E3        29.69S
OFFUTT AFB     PTSUNNY   74  62  67 SE10      29.69R
$$



USA.gov is the U.S. government's official web portal to all federal, state and local government web resources and services.